owner,sensor,date,latitude,longitude,air_temperature,qcFlag 
COMPS,ioos:station:USF.COMPS:ARP:1,2013-01-01T00:00:00Z,28.4330,-82.6670,15.0,1111122 
COMPS,ioos:station:USF.COMPS:ARP:1,2013-01-01T00:06:00Z,28.4330,-82.6670,14.71,1111122 
COMPS,ioos:station:USF.COMPS:ARP:1,2013-01-01T00:12:00Z,28.4330,-82.6670,14.59,1111122 
COMPS,ioos:station:USF.COMPS:ARP:1,2013-01-01T00:18:00Z,28.4330,-82.6670,14.53,1111122 
COMPS,ioos:station:USF.COMPS:ARP:1,2013-01-01T00:24:00Z,28.4330,-82.6670,14.42,1111122 
COMPS,ioos:station:USF.COMPS:ARP:1,2013-01-01T00:30:00Z,28.4330,-82.6670,14.32,1111122 
COMPS,ioos:station:USF.COMPS:ARP:1,2013-01-01T00:36:00Z,28.4330,-82.6670,14.27,1111122 
COMPS,ioos:station:USF.COMPS:ARP:1,2013-01-01T00:42:00Z,28.4330,-82.6670,14.28,1111122 
COMPS,ioos:station:USF.COMPS:ARP:1,2013-01-01T00:48:00Z,28.4330,-82.6670,14.13,1111122 
COMPS,ioos:station:USF.COMPS:ARP:1,2013-01-01T00:54:00Z,28.4330,-82.6670,14.06,1111122 
COMPS,ioos:station:USF.COMPS:ARP:1,2013-01-01T01:00:00Z,28.4330,-82.6670,14.1,1111122 
COMPS,ioos:station:USF.COMPS:ARP:1,2013-01-01T01:06:00Z,28.4330,-82.6670,13.91,1111122 
COMPS,ioos:station:USF.COMPS:ARP:1,2013-01-01T01:12:00Z,28.4330,-82.6670,13.9,1111122 
COMPS,ioos:station:USF.COMPS:ARP:1,2013-01-01T01:18:00Z,28.4330,-82.6670,13.72,1111122 
COMPS,ioos:station:USF.COMPS:ARP:1,2013-01-01T01:24:00Z,28.4330,-82.6670,13.68,1111122 
COMPS,ioos:station:USF.COMPS:ARP:1,2013-01-01T01:30:00Z,28.4330,-82.6670,13.62,1111122 
COMPS,ioos:station:USF.COMPS:ARP:1,2013-01-01T01:36:00Z,28.4330,-82.6670,13.5,1111122 
COMPS,ioos:station:USF.COMPS:ARP:1,2013-01-01T01:42:00Z,28.4330,-82.6670,13.41,1111122 
COMPS,ioos:station:USF.COMPS:ARP:1,2013-01-01T01:48:00Z,28.4330,-82.6670,13.35,1111122 
COMPS,ioos:station:USF.COMPS:ARP:1,2013-01-01T01:54:00Z,28.4330,-82.6670,13.27,1111122 
COMPS,ioos:station:USF.COMPS:ARP:1,2013-01-01T02:00:00Z,28.4330,-82.6670,13.3,1111122 
COMPS,ioos:station:USF.COMPS:ARP:1,2013-01-01T02:06:00Z,28.4330,-82.6670,13.02,1111122 
COMPS,ioos:station:USF.COMPS:ARP:1,2013-01-01T02:12:00Z,28.4330,-82.6670,13.08,1111122 
COMPS,ioos:station:USF.COMPS:ARP:1,2013-01-01T02:18:00Z,28.4330,-82.6670,13.09,1111122 
COMPS,ioos:station:USF.COMPS:ARP:1,2013-01-01T02:24:00Z,28.4330,-82.6670,13.27,1111122 
COMPS,ioos:station:USF.COMPS:ARP:1,2013-01-01T02:30:00Z,28.4330,-82.6670,13.13,1111122 
COMPS,ioos:station:USF.COMPS:ARP:1,2013-01-01T02:36:00Z,28.4330,-82.6670,12.96,1111122 
COMPS,ioos:station:USF.COMPS:ARP:1,2013-01-01T02:42:00Z,28.4330,-82.6670,12.86,1111122 
COMPS,ioos:station:USF.COMPS:ARP:1,2013-01-01T02:48:00Z,28.4330,-82.6670,12.67,1111122 
COMPS,ioos:station:USF.COMPS:ARP:1,2013-01-01T02:54:00Z,28.4330,-82.6670,12.74,1111122 
COMPS,ioos:station:USF.COMPS:ARP:1,2013-01-01T03:00:00Z,28.4330,-82.6670,12.7,1111122 
COMPS,ioos:station:USF.COMPS:ARP:1,2013-01-01T03:06:00Z,28.4330,-82.6670,12.38,1111122 
COMPS,ioos:station:USF.COMPS:ARP:1,2013-01-01T03:12:00Z,28.4330,-82.6670,12.42,1111122 
COMPS,ioos:station:USF.COMPS:ARP:1,2013-01-01T03:18:00Z,28.4330,-82.6670,12.33,1111122 
COMPS,ioos:station:USF.COMPS:ARP:1,2013-01-01T03:24:00Z,28.4330,-82.6670,12.32,1111122 
COMPS,ioos:station:USF.COMPS:ARP:1,2013-01-01T03:30:00Z,28.4330,-82.6670,12.31,1111122 
COMPS,ioos:station:USF.COMPS:ARP:1,2013-01-01T03:36:00Z,28.4330,-82.6670,12.2,1111122 
COMPS,ioos:station:USF.COMPS:ARP:1,2013-01-01T03:42:00Z,28.4330,-82.6670,12.05,1111122 
COMPS,ioos:station:USF.COMPS:ARP:1,2013-01-01T03:48:00Z,28.4330,-82.6670,11.97,1111122 
COMPS,ioos:station:USF.COMPS:ARP:1,2013-01-01T03:54:00Z,28.4330,-82.6670,11.95,1111122 
COMPS,ioos:station:USF.COMPS:ARP:1,2013-01-01T04:00:00Z,28.4330,-82.6670,12.0,1111122 
COMPS,ioos:station:USF.COMPS:ARP:1,2013-01-01T04:06:00Z,28.4330,-82.6670,11.65,1111122 
COMPS,ioos:station:USF.COMPS:ARP:1,2013-01-01T04:12:00Z,28.4330,-82.6670,11.64,1111122 
COMPS,ioos:station:USF.COMPS:ARP:1,2013-01-01T04:18:00Z,28.4330,-82.6670,11.68,1111122 
COMPS,ioos:station:USF.COMPS:ARP:1,2013-01-01T04:24:00Z,28.4330,-82.6670,12.02,1111122 
COMPS,ioos:station:USF.COMPS:ARP:1,2013-01-01T04:30:00Z,28.4330,-82.6670,12.38,1111122 
COMPS,ioos:station:USF.COMPS:ARP:1,2013-01-01T04:36:00Z,28.4330,-82.6670,12.77,1111122 
COMPS,ioos:station:USF.COMPS:ARP:1,2013-01-01T04:42:00Z,28.4330,-82.6670,12.97,1111122 
COMPS,ioos:station:USF.COMPS:ARP:1,2013-01-01T04:48:00Z,28.4330,-82.6670,13.04,1111122 
COMPS,ioos:station:USF.COMPS:ARP:1,2013-01-01T04:54:00Z,28.4330,-82.6670,13.31,1111122 
COMPS,ioos:station:USF.COMPS:ARP:1,2013-01-01T05:00:00Z,28.4330,-82.6670,13.3,1111122 
COMPS,ioos:station:USF.COMPS:ARP:1,2013-01-01T05:06:00Z,28.4330,-82.6670,13.69,1111122 
COMPS,ioos:station:USF.COMPS:ARP:1,2013-01-01T05:12:00Z,28.4330,-82.6670,13.89,1111122 
COMPS,ioos:station:USF.COMPS:ARP:1,2013-01-01T05:18:00Z,28.4330,-82.6670,13.95,1111122 
COMPS,ioos:station:USF.COMPS:ARP:1,2013-01-01T05:24:00Z,28.4330,-82.6670,14.03,1111122 
COMPS,ioos:station:USF.COMPS:ARP:1,2013-01-01T05:30:00Z,28.4330,-82.6670,14.19,1111122 
COMPS,ioos:station:USF.COMPS:ARP:1,2013-01-01T05:36:00Z,28.4330,-82.6670,14.44,1111122 
COMPS,ioos:station:USF.COMPS:ARP:1,2013-01-01T05:42:00Z,28.4330,-82.6670,14.52,1111122 
COMPS,ioos:station:USF.COMPS:ARP:1,2013-01-01T05:48:00Z,28.4330,-82.6670,14.5,1111122 
COMPS,ioos:station:USF.COMPS:ARP:1,2013-01-01T05:54:00Z,28.4330,-82.6670,14.5,1111122 
COMPS,ioos:station:USF.COMPS:ARP:1,2013-01-01T06:00:00Z,28.4330,-82.6670,14.5,1111122 
COMPS,ioos:station:USF.COMPS:ARP:1,2013-01-01T06:06:00Z,28.4330,-82.6670,14.49,1111122 
COMPS,ioos:station:USF.COMPS:ARP:1,2013-01-01T06:12:00Z,28.4330,-82.6670,14.48,1111122 
COMPS,ioos:station:USF.COMPS:ARP:1,2013-01-01T06:18:00Z,28.4330,-82.6670,14.49,1111122 
COMPS,ioos:station:USF.COMPS:ARP:1,2013-01-01T06:24:00Z,28.4330,-82.6670,14.5,1111122 
COMPS,ioos:station:USF.COMPS:ARP:1,2013-01-01T06:30:00Z,28.4330,-82.6670,14.51,1111122 
COMPS,ioos:station:USF.COMPS:ARP:1,2013-01-01T06:36:00Z,28.4330,-82.6670,14.49,1111122 
COMPS,ioos:station:USF.COMPS:ARP:1,2013-01-01T06:42:00Z,28.4330,-82.6670,14.49,1111122 
COMPS,ioos:station:USF.COMPS:ARP:1,2013-01-01T06:48:00Z,28.4330,-82.6670,14.49,1111122 
COMPS,ioos:station:USF.COMPS:ARP:1,2013-01-01T06:54:00Z,28.4330,-82.6670,14.58,1111122 
COMPS,ioos:station:USF.COMPS:ARP:1,2013-01-01T07:00:00Z,28.4330,-82.6670,14.6,1111122 
COMPS,ioos:station:USF.COMPS:ARP:1,2013-01-01T07:06:00Z,28.4330,-82.6670,14.48,1111122 
COMPS,ioos:station:USF.COMPS:ARP:1,2013-01-01T07:12:00Z,28.4330,-82.6670,14.48,1111122 
COMPS,ioos:station:USF.COMPS:ARP:1,2013-01-01T07:18:00Z,28.4330,-82.6670,14.47,1111122 
COMPS,ioos:station:USF.COMPS:ARP:1,2013-01-01T07:24:00Z,28.4330,-82.6670,14.46,1111122 
COMPS,ioos:station:USF.COMPS:ARP:1,2013-01-01T07:30:00Z,28.4330,-82.6670,14.47,1111122 
COMPS,ioos:station:USF.COMPS:ARP:1,2013-01-01T07:36:00Z,28.4330,-82.6670,14.47,1111122 
COMPS,ioos:station:USF.COMPS:ARP:1,2013-01-01T07:42:00Z,28.4330,-82.6670,14.47,1111122 
COMPS,ioos:station:USF.COMPS:ARP:1,2013-01-01T07:48:00Z,28.4330,-82.6670,14.47,1111122 
COMPS,ioos:station:USF.COMPS:ARP:1,2013-01-01T07:54:00Z,28.4330,-82.6670,14.59,1111122 
COMPS,ioos:station:USF.COMPS:ARP:1,2013-01-01T08:00:00Z,28.4330,-82.6670,14.6,1111122 
COMPS,ioos:station:USF.COMPS:ARP:1,2013-01-01T08:06:00Z,28.4330,-82.6670,14.48,1111122 
COMPS,ioos:station:USF.COMPS:ARP:1,2013-01-01T08:12:00Z,28.4330,-82.6670,14.38,1111122 
COMPS,ioos:station:USF.COMPS:ARP:1,2013-01-01T08:18:00Z,28.4330,-82.6670,14.21,1111122 
COMPS,ioos:station:USF.COMPS:ARP:1,2013-01-01T08:24:00Z,28.4330,-82.6670,14.01,1111122 
COMPS,ioos:station:USF.COMPS:ARP:1,2013-01-01T08:30:00Z,28.4330,-82.6670,13.86,1111122 
COMPS,ioos:station:USF.COMPS:ARP:1,2013-01-01T08:36:00Z,28.4330,-82.6670,13.79,1111122 
COMPS,ioos:station:USF.COMPS:ARP:1,2013-01-01T08:42:00Z,28.4330,-82.6670,13.62,1111122 
COMPS,ioos:station:USF.COMPS:ARP:1,2013-01-01T08:48:00Z,28.4330,-82.6670,13.4,1111122 
COMPS,ioos:station:USF.COMPS:ARP:1,2013-01-01T08:54:00Z,28.4330,-82.6670,13.23,1111122 
COMPS,ioos:station:USF.COMPS:ARP:1,2013-01-01T09:00:00Z,28.4330,-82.6670,13.2,1111122 
COMPS,ioos:station:USF.COMPS:ARP:1,2013-01-01T09:06:00Z,28.4330,-82.6670,12.84,1111122 
COMPS,ioos:station:USF.COMPS:ARP:1,2013-01-01T09:12:00Z,28.4330,-82.6670,13.1,1111122 
COMPS,ioos:station:USF.COMPS:ARP:1,2013-01-01T09:18:00Z,28.4330,-82.6670,13.3,1111122 
COMPS,ioos:station:USF.COMPS:ARP:1,2013-01-01T09:24:00Z,28.4330,-82.6670,13.39,1111122 
COMPS,ioos:station:USF.COMPS:ARP:1,2013-01-01T09:30:00Z,28.4330,-82.6670,13.48,1111122 
COMPS,ioos:station:USF.COMPS:ARP:1,2013-01-01T09:36:00Z,28.4330,-82.6670,13.59,1111122 
COMPS,ioos:station:USF.COMPS:ARP:1,2013-01-01T09:42:00Z,28.4330,-82.6670,13.77,1111122 
COMPS,ioos:station:USF.COMPS:ARP:1,2013-01-01T09:48:00Z,28.4330,-82.6670,13.81,1111122 
COMPS,ioos:station:USF.COMPS:ARP:1,2013-01-01T09:54:00Z,28.4330,-82.6670,13.88,1111122 
COMPS,ioos:station:USF.COMPS:ARP:1,2013-01-01T10:00:00Z,28.4330,-82.6670,13.9,1111122 
COMPS,ioos:station:USF.COMPS:ARP:1,2013-01-01T10:06:00Z,28.4330,-82.6670,13.97,1111122 
COMPS,ioos:station:USF.COMPS:ARP:1,2013-01-01T10:12:00Z,28.4330,-82.6670,14.12,1111122 
COMPS,ioos:station:USF.COMPS:ARP:1,2013-01-01T10:18:00Z,28.4330,-82.6670,14.1,1111122 
COMPS,ioos:station:USF.COMPS:ARP:1,2013-01-01T10:24:00Z,28.4330,-82.6670,14.12,1111122 
COMPS,ioos:station:USF.COMPS:ARP:1,2013-01-01T10:30:00Z,28.4330,-82.6670,14.08,1111122 
COMPS,ioos:station:USF.COMPS:ARP:1,2013-01-01T10:36:00Z,28.4330,-82.6670,13.99,1111122 
COMPS,ioos:station:USF.COMPS:ARP:1,2013-01-01T10:42:00Z,28.4330,-82.6670,14.01,1111122 
COMPS,ioos:station:USF.COMPS:ARP:1,2013-01-01T10:48:00Z,28.4330,-82.6670,13.95,1111122 
COMPS,ioos:station:USF.COMPS:ARP:1,2013-01-01T10:54:00Z,28.4330,-82.6670,14.19,1111122 
COMPS,ioos:station:USF.COMPS:ARP:1,2013-01-01T11:00:00Z,28.4330,-82.6670,14.2,1111122 
COMPS,ioos:station:USF.COMPS:ARP:1,2013-01-01T11:06:00Z,28.4330,-82.6670,14.35,1111122 
COMPS,ioos:station:USF.COMPS:ARP:1,2013-01-01T11:12:00Z,28.4330,-82.6670,14.21,1111122 
COMPS,ioos:station:USF.COMPS:ARP:1,2013-01-01T11:18:00Z,28.4330,-82.6670,14.08,1111122 
COMPS,ioos:station:USF.COMPS:ARP:1,2013-01-01T11:24:00Z,28.4330,-82.6670,13.94,1111122 
COMPS,ioos:station:USF.COMPS:ARP:1,2013-01-01T11:30:00Z,28.4330,-82.6670,13.94,1111122 
COMPS,ioos:station:USF.COMPS:ARP:1,2013-01-01T11:36:00Z,28.4330,-82.6670,13.87,1111122 
COMPS,ioos:station:USF.COMPS:ARP:1,2013-01-01T11:42:00Z,28.4330,-82.6670,13.81,1111122 
COMPS,ioos:station:USF.COMPS:ARP:1,2013-01-01T11:48:00Z,28.4330,-82.6670,13.68,1111122 
COMPS,ioos:station:USF.COMPS:ARP:1,2013-01-01T11:54:00Z,28.4330,-82.6670,13.66,1111122 
COMPS,ioos:station:USF.COMPS:ARP:1,2013-01-01T12:00:00Z,28.4330,-82.6670,13.7,1111122 
COMPS,ioos:station:USF.COMPS:ARP:1,2013-01-01T12:06:00Z,28.4330,-82.6670,13.67,1111122 
COMPS,ioos:station:USF.COMPS:ARP:1,2013-01-01T12:12:00Z,28.4330,-82.6670,13.63,1111122 
COMPS,ioos:station:USF.COMPS:ARP:1,2013-01-01T12:18:00Z,28.4330,-82.6670,13.54,1111122 
COMPS,ioos:station:USF.COMPS:ARP:1,2013-01-01T12:24:00Z,28.4330,-82.6670,13.43,1111122 
COMPS,ioos:station:USF.COMPS:ARP:1,2013-01-01T12:30:00Z,28.4330,-82.6670,13.4,1111122 
COMPS,ioos:station:USF.COMPS:ARP:1,2013-01-01T12:36:00Z,28.4330,-82.6670,13.43,1111122 
COMPS,ioos:station:USF.COMPS:ARP:1,2013-01-01T12:42:00Z,28.4330,-82.6670,13.55,1111122 
COMPS,ioos:station:USF.COMPS:ARP:1,2013-01-01T12:48:00Z,28.4330,-82.6670,13.56,1111122 
COMPS,ioos:station:USF.COMPS:ARP:1,2013-01-01T12:54:00Z,28.4330,-82.6670,13.75,1111122 
COMPS,ioos:station:USF.COMPS:ARP:1,2013-01-01T13:00:00Z,28.4330,-82.6670,13.8,1111122 
COMPS,ioos:station:USF.COMPS:ARP:1,2013-01-01T13:06:00Z,28.4330,-82.6670,13.81,1111122 
COMPS,ioos:station:USF.COMPS:ARP:1,2013-01-01T13:12:00Z,28.4330,-82.6670,14.06,1111122 
COMPS,ioos:station:USF.COMPS:ARP:1,2013-01-01T13:18:00Z,28.4330,-82.6670,14.37,1111122 
COMPS,ioos:station:USF.COMPS:ARP:1,2013-01-01T13:24:00Z,28.4330,-82.6670,14.58,1111122 
COMPS,ioos:station:USF.COMPS:ARP:1,2013-01-01T13:30:00Z,28.4330,-82.6670,14.87,1111122 
COMPS,ioos:station:USF.COMPS:ARP:1,2013-01-01T13:36:00Z,28.4330,-82.6670,15.23,1111122 
COMPS,ioos:station:USF.COMPS:ARP:1,2013-01-01T13:42:00Z,28.4330,-82.6670,15.57,1111122 
COMPS,ioos:station:USF.COMPS:ARP:1,2013-01-01T13:48:00Z,28.4330,-82.6670,15.95,1111122 
COMPS,ioos:station:USF.COMPS:ARP:1,2013-01-01T13:54:00Z,28.4330,-82.6670,16.33,1111122 
COMPS,ioos:station:USF.COMPS:ARP:1,2013-01-01T14:00:00Z,28.4330,-82.6670,16.3,1111122 
COMPS,ioos:station:USF.COMPS:ARP:1,2013-01-01T14:06:00Z,28.4330,-82.6670,16.82,1111122 
COMPS,ioos:station:USF.COMPS:ARP:1,2013-01-01T14:12:00Z,28.4330,-82.6670,17.4,1111122 
COMPS,ioos:station:USF.COMPS:ARP:1,2013-01-01T14:18:00Z,28.4330,-82.6670,18.35,1111122 
COMPS,ioos:station:USF.COMPS:ARP:1,2013-01-01T14:24:00Z,28.4330,-82.6670,18.76,1111122 
COMPS,ioos:station:USF.COMPS:ARP:1,2013-01-01T14:30:00Z,28.4330,-82.6670,19.04,1111122 
COMPS,ioos:station:USF.COMPS:ARP:1,2013-01-01T14:36:00Z,28.4330,-82.6670,19.19,1111122 
COMPS,ioos:station:USF.COMPS:ARP:1,2013-01-01T14:42:00Z,28.4330,-82.6670,19.35,1111122 
COMPS,ioos:station:USF.COMPS:ARP:1,2013-01-01T14:48:00Z,28.4330,-82.6670,19.75,1111122 
COMPS,ioos:station:USF.COMPS:ARP:1,2013-01-01T14:54:00Z,28.4330,-82.6670,20.09,1111122 
COMPS,ioos:station:USF.COMPS:ARP:1,2013-01-01T15:00:00Z,28.4330,-82.6670,20.36,1111122 
COMPS,ioos:station:USF.COMPS:ARP:1,2013-01-01T15:06:00Z,28.4330,-82.6670,20.73,1111122 
COMPS,ioos:station:USF.COMPS:ARP:1,2013-01-01T15:12:00Z,28.4330,-82.6670,21.02,1111122 
COMPS,ioos:station:USF.COMPS:ARP:1,2013-01-01T15:18:00Z,28.4330,-82.6670,21.0,1111122 
COMPS,ioos:station:USF.COMPS:ARP:1,2013-01-01T15:24:00Z,28.4330,-82.6670,21.26,1111122 
COMPS,ioos:station:USF.COMPS:ARP:1,2013-01-01T15:30:00Z,28.4330,-82.6670,21.43,1111122 
COMPS,ioos:station:USF.COMPS:ARP:1,2013-01-01T15:36:00Z,28.4330,-82.6670,21.73,1111122 
COMPS,ioos:station:USF.COMPS:ARP:1,2013-01-01T15:42:00Z,28.4330,-82.6670,21.92,1111122 
COMPS,ioos:station:USF.COMPS:ARP:1,2013-01-01T15:48:00Z,28.4330,-82.6670,21.88,1111122 
COMPS,ioos:station:USF.COMPS:ARP:1,2013-01-01T15:54:00Z,28.4330,-82.6670,22.18,1111122 
COMPS,ioos:station:USF.COMPS:ARP:1,2013-01-01T16:00:00Z,28.4330,-82.6670,22.2,1111122 
COMPS,ioos:station:USF.COMPS:ARP:1,2013-01-01T16:06:00Z,28.4330,-82.6670,22.37,1111122 
COMPS,ioos:station:USF.COMPS:ARP:1,2013-01-01T16:12:00Z,28.4330,-82.6670,22.52,1111122 
COMPS,ioos:station:USF.COMPS:ARP:1,2013-01-01T16:18:00Z,28.4330,-82.6670,22.59,1111122 
COMPS,ioos:station:USF.COMPS:ARP:1,2013-01-01T16:24:00Z,28.4330,-82.6670,22.74,1111122 
COMPS,ioos:station:USF.COMPS:ARP:1,2013-01-01T16:30:00Z,28.4330,-82.6670,22.96,1111122 
COMPS,ioos:station:USF.COMPS:ARP:1,2013-01-01T16:36:00Z,28.4330,-82.6670,23.0,1111122 
COMPS,ioos:station:USF.COMPS:ARP:1,2013-01-01T16:42:00Z,28.4330,-82.6670,23.08,1111122 
COMPS,ioos:station:USF.COMPS:ARP:1,2013-01-01T16:48:00Z,28.4330,-82.6670,23.11,1111122 
COMPS,ioos:station:USF.COMPS:ARP:1,2013-01-01T16:54:00Z,28.4330,-82.6670,23.19,1111122 
COMPS,ioos:station:USF.COMPS:ARP:1,2013-01-01T17:00:00Z,28.4330,-82.6670,23.2,1111122 
COMPS,ioos:station:USF.COMPS:ARP:1,2013-01-01T17:06:00Z,28.4330,-82.6670,23.4,1111122 
COMPS,ioos:station:USF.COMPS:ARP:1,2013-01-01T17:12:00Z,28.4330,-82.6670,23.27,1111122 
COMPS,ioos:station:USF.COMPS:ARP:1,2013-01-01T17:18:00Z,28.4330,-82.6670,23.47,1111122 
COMPS,ioos:station:USF.COMPS:ARP:1,2013-01-01T17:24:00Z,28.4330,-82.6670,23.37,1111122 
COMPS,ioos:station:USF.COMPS:ARP:1,2013-01-01T17:30:00Z,28.4330,-82.6670,23.66,1111122 
COMPS,ioos:station:USF.COMPS:ARP:1,2013-01-01T17:36:00Z,28.4330,-82.6670,23.54,1111122 
COMPS,ioos:station:USF.COMPS:ARP:1,2013-01-01T17:42:00Z,28.4330,-82.6670,23.65,1111122 
COMPS,ioos:station:USF.COMPS:ARP:1,2013-01-01T17:48:00Z,28.4330,-82.6670,23.78,1111122 
COMPS,ioos:station:USF.COMPS:ARP:1,2013-01-01T17:54:00Z,28.4330,-82.6670,23.85,1111122 
COMPS,ioos:station:USF.COMPS:ARP:1,2013-01-01T18:00:00Z,28.4330,-82.6670,23.88,1111122 
COMPS,ioos:station:USF.COMPS:ARP:1,2013-01-01T18:06:00Z,28.4330,-82.6670,23.62,1111122 
COMPS,ioos:station:USF.COMPS:ARP:1,2013-01-01T18:12:00Z,28.4330,-82.6670,23.72,1111122 
COMPS,ioos:station:USF.COMPS:ARP:1,2013-01-01T18:18:00Z,28.4330,-82.6670,23.66,1111122 
COMPS,ioos:station:USF.COMPS:ARP:1,2013-01-01T18:24:00Z,28.4330,-82.6670,23.65,1111122 
COMPS,ioos:station:USF.COMPS:ARP:1,2013-01-01T18:30:00Z,28.4330,-82.6670,23.91,1111122 
COMPS,ioos:station:USF.COMPS:ARP:1,2013-01-01T18:36:00Z,28.4330,-82.6670,23.98,1111122 
COMPS,ioos:station:USF.COMPS:ARP:1,2013-01-01T18:42:00Z,28.4330,-82.6670,24.15,1111122 
COMPS,ioos:station:USF.COMPS:ARP:1,2013-01-01T18:48:00Z,28.4330,-82.6670,24.3,1111122 
COMPS,ioos:station:USF.COMPS:ARP:1,2013-01-01T18:54:00Z,28.4330,-82.6670,24.58,1111122 
COMPS,ioos:station:USF.COMPS:ARP:1,2013-01-01T19:00:00Z,28.4330,-82.6670,24.6,1111122 
COMPS,ioos:station:USF.COMPS:ARP:1,2013-01-01T19:06:00Z,28.4330,-82.6670,24.41,1111122 
COMPS,ioos:station:USF.COMPS:ARP:1,2013-01-01T19:12:00Z,28.4330,-82.6670,24.47,1111122 
COMPS,ioos:station:USF.COMPS:ARP:1,2013-01-01T19:18:00Z,28.4330,-82.6670,23.24,1111122 
COMPS,ioos:station:USF.COMPS:ARP:1,2013-01-01T19:24:00Z,28.4330,-82.6670,22.39,1111122 
COMPS,ioos:station:USF.COMPS:ARP:1,2013-01-01T19:30:00Z,28.4330,-82.6670,22.98,1111122 
COMPS,ioos:station:USF.COMPS:ARP:1,2013-01-01T19:36:00Z,28.4330,-82.6670,22.83,1111122 
COMPS,ioos:station:USF.COMPS:ARP:1,2013-01-01T19:42:00Z,28.4330,-82.6670,22.83,1111122 
COMPS,ioos:station:USF.COMPS:ARP:1,2013-01-01T19:48:00Z,28.4330,-82.6670,23.04,1111122 
COMPS,ioos:station:USF.COMPS:ARP:1,2013-01-01T19:54:00Z,28.4330,-82.6670,22.86,1111122 
COMPS,ioos:station:USF.COMPS:ARP:1,2013-01-01T20:00:00Z,28.4330,-82.6670,22.9,1111122 
COMPS,ioos:station:USF.COMPS:ARP:1,2013-01-01T20:06:00Z,28.4330,-82.6670,22.58,1111122 
COMPS,ioos:station:USF.COMPS:ARP:1,2013-01-01T20:12:00Z,28.4330,-82.6670,22.66,1111122 
COMPS,ioos:station:USF.COMPS:ARP:1,2013-01-01T20:18:00Z,28.4330,-82.6670,22.51,1111122 
COMPS,ioos:station:USF.COMPS:ARP:1,2013-01-01T20:24:00Z,28.4330,-82.6670,21.78,1111122 
COMPS,ioos:station:USF.COMPS:ARP:1,2013-01-01T20:30:00Z,28.4330,-82.6670,21.44,1111122 
COMPS,ioos:station:USF.COMPS:ARP:1,2013-01-01T20:36:00Z,28.4330,-82.6670,21.4,1111122 
COMPS,ioos:station:USF.COMPS:ARP:1,2013-01-01T20:42:00Z,28.4330,-82.6670,21.4,1111122 
COMPS,ioos:station:USF.COMPS:ARP:1,2013-01-01T20:48:00Z,28.4330,-82.6670,21.32,1111122 
COMPS,ioos:station:USF.COMPS:ARP:1,2013-01-01T20:54:00Z,28.4330,-82.6670,21.36,1111122 
COMPS,ioos:station:USF.COMPS:ARP:1,2013-01-01T21:00:00Z,28.4330,-82.6670,21.4,1111122 
COMPS,ioos:station:USF.COMPS:ARP:1,2013-01-01T21:06:00Z,28.4330,-82.6670,21.16,1111122 
COMPS,ioos:station:USF.COMPS:ARP:1,2013-01-01T21:12:00Z,28.4330,-82.6670,20.95,1111122 
COMPS,ioos:station:USF.COMPS:ARP:1,2013-01-01T21:18:00Z,28.4330,-82.6670,20.85,1111122 
COMPS,ioos:station:USF.COMPS:ARP:1,2013-01-01T21:24:00Z,28.4330,-82.6670,20.83,1111122 
COMPS,ioos:station:USF.COMPS:ARP:1,2013-01-01T21:30:00Z,28.4330,-82.6670,21.04,1111122 
COMPS,ioos:station:USF.COMPS:ARP:1,2013-01-01T21:36:00Z,28.4330,-82.6670,21.16,1111122 
COMPS,ioos:station:USF.COMPS:ARP:1,2013-01-01T21:42:00Z,28.4330,-82.6670,20.95,1111122 
COMPS,ioos:station:USF.COMPS:ARP:1,2013-01-01T21:48:00Z,28.4330,-82.6670,20.91,1111122 
COMPS,ioos:station:USF.COMPS:ARP:1,2013-01-01T21:54:00Z,28.4330,-82.6670,20.83,1111122 
COMPS,ioos:station:USF.COMPS:ARP:1,2013-01-01T22:00:00Z,28.4330,-82.6670,20.8,1111122 
COMPS,ioos:station:USF.COMPS:ARP:1,2013-01-01T22:06:00Z,28.4330,-82.6670,20.43,1111122 
COMPS,ioos:station:USF.COMPS:ARP:1,2013-01-01T22:12:00Z,28.4330,-82.6670,20.27,1111122 
COMPS,ioos:station:USF.COMPS:ARP:1,2013-01-01T22:18:00Z,28.4330,-82.6670,20.09,1111122 
COMPS,ioos:station:USF.COMPS:ARP:1,2013-01-01T22:24:00Z,28.4330,-82.6670,20.09,1111122 
COMPS,ioos:station:USF.COMPS:ARP:1,2013-01-01T22:30:00Z,28.4330,-82.6670,20.11,1111122 
COMPS,ioos:station:USF.COMPS:ARP:1,2013-01-01T22:36:00Z,28.4330,-82.6670,20.17,1111122 
COMPS,ioos:station:USF.COMPS:ARP:1,2013-01-01T22:42:00Z,28.4330,-82.6670,20.12,1111122 
COMPS,ioos:station:USF.COMPS:ARP:1,2013-01-01T22:48:00Z,28.4330,-82.6670,20.1,1111122 
COMPS,ioos:station:USF.COMPS:ARP:1,2013-01-01T22:54:00Z,28.4330,-82.6670,20.04,1111122 
COMPS,ioos:station:USF.COMPS:ARP:1,2013-01-01T23:00:00Z,28.4330,-82.6670,20.0,1111122 
COMPS,ioos:station:USF.COMPS:ARP:1,2013-01-01T23:06:00Z,28.4330,-82.6670,19.86,1111122 
COMPS,ioos:station:USF.COMPS:ARP:1,2013-01-01T23:12:00Z,28.4330,-82.6670,19.72,1111122 
COMPS,ioos:station:USF.COMPS:ARP:1,2013-01-01T23:18:00Z,28.4330,-82.6670,19.74,1111122 
COMPS,ioos:station:USF.COMPS:ARP:1,2013-01-01T23:24:00Z,28.4330,-82.6670,19.85,1111122 
COMPS,ioos:station:USF.COMPS:ARP:1,2013-01-01T23:30:00Z,28.4330,-82.6670,19.74,1111122 
COMPS,ioos:station:USF.COMPS:ARP:1,2013-01-01T23:36:00Z,28.4330,-82.6670,19.62,1111122 
COMPS,ioos:station:USF.COMPS:ARP:1,2013-01-01T23:42:00Z,28.4330,-82.6670,19.42,1111122 
COMPS,ioos:station:USF.COMPS:ARP:1,2013-01-01T23:48:00Z,28.4330,-82.6670,19.02,1111122 
COMPS,ioos:station:USF.COMPS:ARP:1,2013-01-01T23:54:00Z,28.4330,-82.6670,18.78,1111122 
COMPS,ioos:station:USF.COMPS:ARP:1,2013-01-02T00:00:00Z,28.4330,-82.6670,18.8,1111122 
COMPS,ioos:station:USF.COMPS:ARP:1,2013-01-02T00:06:00Z,28.4330,-82.6670,18.25,1111122 
COMPS,ioos:station:USF.COMPS:ARP:1,2013-01-02T00:12:00Z,28.4330,-82.6670,18.02,1111122 
COMPS,ioos:station:USF.COMPS:ARP:1,2013-01-02T00:18:00Z,28.4330,-82.6670,17.75,1111122 
COMPS,ioos:station:USF.COMPS:ARP:1,2013-01-02T00:24:00Z,28.4330,-82.6670,17.66,1111122 
COMPS,ioos:station:USF.COMPS:ARP:1,2013-01-02T00:30:00Z,28.4330,-82.6670,17.55,1111122 
COMPS,ioos:station:USF.COMPS:ARP:1,2013-01-02T00:36:00Z,28.4330,-82.6670,17.54,1111122 
COMPS,ioos:station:USF.COMPS:ARP:1,2013-01-02T00:42:00Z,28.4330,-82.6670,17.38,1111122 
COMPS,ioos:station:USF.COMPS:ARP:1,2013-01-02T00:48:00Z,28.4330,-82.6670,17.33,1111122 
COMPS,ioos:station:USF.COMPS:ARP:1,2013-01-02T00:54:00Z,28.4330,-82.6670,17.48,1111122 
COMPS,ioos:station:USF.COMPS:ARP:1,2013-01-02T01:00:00Z,28.4330,-82.6670,17.5,1111122 
COMPS,ioos:station:USF.COMPS:ARP:1,2013-01-02T01:06:00Z,28.4330,-82.6670,17.71,1111122 
COMPS,ioos:station:USF.COMPS:ARP:1,2013-01-02T01:12:00Z,28.4330,-82.6670,17.77,1111122 
COMPS,ioos:station:USF.COMPS:ARP:1,2013-01-02T01:18:00Z,28.4330,-82.6670,18.14,1111122 
COMPS,ioos:station:USF.COMPS:ARP:1,2013-01-02T01:24:00Z,28.4330,-82.6670,18.32,1111122 
COMPS,ioos:station:USF.COMPS:ARP:1,2013-01-02T01:30:00Z,28.4330,-82.6670,18.3,1111122 
COMPS,ioos:station:USF.COMPS:ARP:1,2013-01-02T01:36:00Z,28.4330,-82.6670,18.15,1111122 
COMPS,ioos:station:USF.COMPS:ARP:1,2013-01-02T01:42:00Z,28.4330,-82.6670,18.19,1111122 
COMPS,ioos:station:USF.COMPS:ARP:1,2013-01-02T01:48:00Z,28.4330,-82.6670,17.9,1111122 
COMPS,ioos:station:USF.COMPS:ARP:1,2013-01-02T01:54:00Z,28.4330,-82.6670,18.03,1111122 
COMPS,ioos:station:USF.COMPS:ARP:1,2013-01-02T02:00:00Z,28.4330,-82.6670,18.0,1111122 
COMPS,ioos:station:USF.COMPS:ARP:1,2013-01-02T02:06:00Z,28.4330,-82.6670,17.67,1111122 
COMPS,ioos:station:USF.COMPS:ARP:1,2013-01-02T02:12:00Z,28.4330,-82.6670,17.77,1111122 
COMPS,ioos:station:USF.COMPS:ARP:1,2013-01-02T02:18:00Z,28.4330,-82.6670,17.76,1111122 
COMPS,ioos:station:USF.COMPS:ARP:1,2013-01-02T02:24:00Z,28.4330,-82.6670,17.53,1111122 
COMPS,ioos:station:USF.COMPS:ARP:1,2013-01-02T02:30:00Z,28.4330,-82.6670,17.35,1111122 
COMPS,ioos:station:USF.COMPS:ARP:1,2013-01-02T02:36:00Z,28.4330,-82.6670,16.92,1111122 
COMPS,ioos:station:USF.COMPS:ARP:1,2013-01-02T02:42:00Z,28.4330,-82.6670,16.84,1111122 
COMPS,ioos:station:USF.COMPS:ARP:1,2013-01-02T02:48:00Z,28.4330,-82.6670,17.21,1111122 
COMPS,ioos:station:USF.COMPS:ARP:1,2013-01-02T02:54:00Z,28.4330,-82.6670,17.76,1111122 
COMPS,ioos:station:USF.COMPS:ARP:1,2013-01-02T03:00:00Z,28.4330,-82.6670,17.8,1111122 
COMPS,ioos:station:USF.COMPS:ARP:1,2013-01-02T03:06:00Z,28.4330,-82.6670,17.96,1111122 